GW2742 Weather Reports


time (UTC)temp
C
wind
direction
speed
KPH
gust
KPH
rain 1hr
cm
rain 24hr
cm
rain mn
cm
humidity
%
barometer
mb
20260505002026 11 310 8.0 25.7 0.00 0.00 0.00 42 1012.1
20260505001539 11 327 11.3 25.7 0.00 0.00 0.00 42 1012.0
20260505001025 11 300 11.3 25.7 0.00 0.00 0.00 42 1012.0
20260505000528 11 311 11.3 24.1 0.00 0.00 0.00 43 1012.0
20260505000051 11 262 11.3 24.1 0.00 0.00 0.00 43 1011.9
20260504235527 11 328 12.9 24.1 0.00 0.00 0.00 42 1011.9
20260504235025 11 295 11.3 25.7 0.00 0.00 0.00 43 1011.8
20260504234539 11 305 11.3 25.7 0.00 0.00 0.00 43 1011.9
20260504234026 11 286 11.3 25.7 0.00 0.00 0.00 43 1011.8
20260504233526 11 278 9.7 27.4 0.00 0.00 0.00 43 1011.6
20260504233044 11 356 11.3 27.4 0.00 0.00 0.00 43 1011.6
20260504232522 11 280 11.3 22.5 0.00 0.00 0.00 43 1011.7
20260504232022 11 328 11.3 25.7 0.00 0.00 0.00 43 1011.6
20260504231537 11 316 11.3 25.7 0.00 0.00 0.00 43 1011.6
20260504231022 11 293 11.3 24.1 0.00 0.00 0.00 43 1011.6
20260504230523 11 332 9.7 30.6 0.00 0.00 0.00 44 1011.8
20260504230043 11 322 11.3 30.6 0.00 0.00 0.00 43 1011.7
20260504225523 11 330 12.9 29.0 0.00 0.00 0.00 41 1011.7
20260504225024 12 251 12.9 27.4 0.00 0.00 0.00 42 1011.6
20260504224550 12 331 11.3 27.4 0.00 0.00 0.00 41 1011.6
20260504224025 13 349 11.3 30.6 0.00 0.00 0.00 40 1011.7
20260504223523 13 322 14.5 30.6 0.00 0.00 0.00 40 1011.7
20260504223039 12 2 14.5 29.0 0.00 0.00 0.00 40 1011.7
20260504222522 12 314 12.9 25.7 0.00 0.00 0.00 41 1011.7
20260504222023 12 324 11.3 29.0 0.00 0.00 0.00 41 1011.8
20260504221539 12 341 14.5 29.0 0.00 0.00 0.00 41 1011.8
20260504221028 13 276 9.7 32.2 0.00 0.00 0.00 41 1011.8
20260504220525 13 51 14.5 32.2 0.00 0.00 0.00 41 1011.8
20260504220043 13 352 14.5 32.2 0.00 0.00 0.00 40 1011.6
20260504215524 13 343 14.5 30.6 0.00 0.00 0.00 41 1011.6
20260504215022 13 325 12.9 30.6 0.00 0.00 0.00 40 1011.3
20260504214543 13 359 14.5 30.6 0.00 0.00 0.00 41 1011.3
20260504214022 13 359 11.3 30.6 0.00 0.00 0.00 40 1011.6
20260504213522 13 340 9.7 30.6 0.00 0.00 0.00 41 1011.6
20260504213042 13 359 12.9 30.6 0.00 0.00 0.00 40 1011.6
20260504212524 13 311 16.1 33.8 0.00 0.00 0.00 40 1011.6
20260504212023 14 314 16.1 33.8 0.00 0.00 0.00 41 1011.7
20260504211541 14 346 16.1 33.8 0.00 0.00 0.00 41 1011.7
20260504211022 14 323 11.3 25.7 0.00 0.00 0.00 41 1011.6
20260504210522 14 307 12.9 25.7 0.00 0.00 0.00 40 1011.5
20260504210052 15 327 11.3 22.5 0.00 0.00 0.00 40 1011.8
20260504205525 15 316 14.5 30.6 0.00 0.00 0.00 40 1011.6
20260504205029 14 354 14.5 30.6 0.00 0.00 0.00 42 1011.7
20260504204545 14 334 14.5 27.4 0.00 0.00 0.00 41 1011.7
20260504204021 14 343 14.5 27.4 0.00 0.00 0.00 41 1011.8
20260504203521 15 319 12.9 27.4 0.00 0.00 0.00 41 1011.8
20260504203039 15 303 12.9 29.0 0.00 0.00 0.00 41 1011.8
20260504202527 14 285 12.9 30.6 0.00 0.00 0.00 43 1011.8
20260504202027 15 341 12.9 30.6 0.00 0.00 0.00 41 1011.9
20260504201538 14 28 16.1 30.6 0.00 0.00 0.00 40 1011.8
20260504201029 14 339 14.5 29.0 0.00 0.00 0.00 43 1011.6
20260504200530 14 345 11.3 35.4 0.00 0.00 0.00 41 1011.6
20260504200052 14 345 14.5 35.4 0.00 0.00 0.00 41 1011.8
20260504195524 14 294 12.9 22.5 0.00 0.00 0.00 42 1011.7
20260504195027 14 343 9.7 22.5 0.00 0.00 0.00 41 1011.9
20260504194537 13 332 9.7 22.5 0.00 0.00 0.00 43 1011.9
20260504194028 13 304 11.3 25.7 0.00 0.00 0.00 42 1012.0
20260504193528 13 330 12.9 25.7 0.00 0.00 0.00 46 1012.0
20260504193042 13 340 9.7 25.7 0.00 0.00 0.00 44 1012.1
20260504192524 13 312 12.9 25.7 0.00 0.00 0.00 43 1012.1
20260504192030 13 344 9.7 22.5 0.00 0.00 0.00 45 1012.2
20260504191538 13 335 11.3 24.1 0.00 0.00 0.00 43 1012.2
20260504191027 13 343 8.0 24.1 0.00 0.00 0.00 44 1012.3
20260504190527 13 358 11.3 24.1 0.00 0.00 0.00 44 1012.4
20260504190036 13 357 11.3 24.1 0.00 0.00 0.00 46 1012.3
20260504185526 13 2 11.3 25.7 0.00 0.00 0.00 44 1012.5
20260504185027 13 7 11.3 25.7 0.00 0.00 0.00 45 1012.5
20260504184542 13 342 14.5 25.7 0.00 0.00 0.00 43 1012.5
20260504184031 13 347 9.7 22.5 0.00 0.00 0.00 45 1012.5
20260504183526 13 347 9.7 22.5 0.00 0.00 0.00 47 1012.6
20260504183038 12 331 6.4 24.1 0.00 0.00 0.00 48 1012.6
20260504182526 12 347 14.5 29.0 0.00 0.00 0.00 47 1012.7
20260504182024 12 68 9.7 29.0 0.00 0.00 0.00 47 1012.7
20260504181538 12 42 12.9 29.0 0.00 0.00 0.00 47 1012.5
20260504181027 12 60 14.5 29.0 0.00 0.00 0.00 48 1012.7
20260504180524 12 25 12.9 24.1 0.00 0.00 0.00 45 1012.8
20260504180037 13 72 8.0 27.4 0.00 0.00 0.00 47 1012.7
20260504175526 13 32 14.5 27.4 0.00 0.00 0.00 46 1012.8
20260504175026 13 60 14.5 27.4 0.00 0.00 0.00 44 1012.6
20260504174536 13 4 9.7 22.5 0.00 0.00 0.00 46 1012.7
20260504174027 12 323 12.9 22.5 0.00 0.00 0.00 44 1012.7
20260504173530 13 56 4.8 22.5 0.00 0.00 0.00 46 1012.6
20260504173037 13 18 8.0 20.9 0.00 0.00 0.00 45 1012.7
20260504172524 13 307 8.0 17.7 0.00 0.00 0.00 46 1012.7
20260504172027 12 360 8.0 19.3 0.00 0.00 0.00 46 1012.8
20260504171537 12 55 9.7 20.9 0.00 0.00 0.00 47 1012.9
20260504171027 12 3 6.4 20.9 0.00 0.00 0.00 46 1012.8
20260504170526 12 49 9.7 20.9 0.00 0.00 0.00 47 1012.9
20260504151027 10 60 9.7 27.4 0.00 0.00 0.00 53 1013.0
20260504150525 10 20 9.7 27.4 0.00 0.00 0.00 53 1013.1
20260504141028 8 36 11.3 24.1 0.00 0.00 0.00 56 1012.6
20260504140526 8 359 12.9 32.2 0.00 0.00 0.00 56 1012.6
20260504130524 8 25 4.8 14.5 0.00 0.00 0.00 52 1012.2
20260504110526 10 11 4.8 14.5 0.00 0.00 0.00 51 1009.1
20260504100527 6 24 0.0 4.8 0.00 0.00 0.00 66 1008.1
20260504081540 7 0 0.0 0.0 0.00 0.00 0.00 61 1008.0
20260504081027 7 0 0.0 0.0 0.00 0.00 0.00 61 1007.9
20260504080527 7 0 0.0 0.0 0.00 0.00 0.00 60 1008.0
20260504050527 11 193 0.0 3.2 0.00 0.00 0.00 44 1008.2
20260504045526 11 0 0.0 6.4 0.00 0.00 0.00 47 1008.3
20260504045030 11 193 1.6 6.4 0.00 0.00 0.00 43 1008.2
20260504044537 11 193 3.2 6.4 0.00 0.00 0.00 42 1008.1
20260504044025 11 257 1.6 3.2 0.00 0.00 0.00 43 1008.0
20260504043523 12 257 1.6 3.2 0.00 0.00 0.00 43 1008.0
20260504043058 12 257 0.0 3.2 0.00 0.00 0.00 41 1007.9
20260504042523 12 0 0.0 3.2 0.00 0.00 0.00 40 1008.0
20260504042023 12 257 0.0 3.2 0.00 0.00 0.00 39 1007.9
20260504041538 12 257 1.6 3.2 0.00 0.00 0.00 39 1008.0
20260504041022 12 257 1.6 3.2 0.00 0.00 0.00 39 1007.9
20260504040525 13 257 1.6 3.2 0.00 0.00 0.00 40 1008.0
20260504040042 13 0 1.6 3.2 0.00 0.00 0.00 38 1008.0
20260504035526 13 0 1.6 3.2 0.00 0.00 0.00 38 1008.0
20260504035023 13 0 0.0 3.2 0.00 0.00 0.00 36 1008.1
20260504034546 14 0 0.0 0.0 0.00 0.00 0.00 35 1008.0
20260504034026 14 0 0.0 1.6 0.00 0.00 0.00 35 1008.0
20260504033523 14 0 0.0 1.6 0.00 0.00 0.00 34 1007.9
20260504033043 15 0 0.0 1.6 0.00 0.00 0.00 36 1007.9
20260504032523 15 0 0.0 3.2 0.00 0.00 0.00 36 1007.9
20260504032023 16 0 0.0 4.8 0.00 0.00 0.00 35 1007.9
20260504031549 16 356 0.0 4.8 0.00 0.00 0.00 37 1007.7
20260504031025 16 324 1.6 6.4 0.00 0.00 0.00 30 1007.8
20260504030525 17 352 1.6 6.4 0.00 0.00 0.00 31 1007.8
20260504030055 17 319 3.2 6.4 0.00 0.00 0.00 29 1007.7
20260504025523 17 329 3.2 6.4 0.00 0.00 0.00 29 1007.7
20260504025026 17 327 3.2 6.4 0.00 0.00 0.00 30 1007.7
20260504024540 16 334 1.6 6.4 0.00 0.00 0.00 30 1007.7
20260504024026 16 335 1.6 4.8 0.00 0.00 0.00 33 1007.6
20260504023523 17 0 0.0 4.8 0.00 0.00 0.00 33 1007.7
20260504023038 17 0 0.0 4.8 0.00 0.00 0.00 34 1007.6
20260504022523 17 0 0.0 3.2 0.00 0.00 0.00 35 1007.6
20260504022024 18 0 0.0 3.2 0.00 0.00 0.00 34 1007.5
20260504021545 18 0 0.0 0.0 0.00 0.00 0.00 33 1007.6
20260504021025 18 0 0.0 3.2 0.00 0.00 0.00 32 1007.6
20260504020522 19 0 0.0 4.8 0.00 0.00 0.00 31 1007.6
20260504020039 19 0 1.6 4.8 0.00 0.00 0.00 32 1007.6
20260504015527 20 335 3.2 4.8 0.00 0.00 0.00 32 1007.5
20260504015023 21 238 1.6 3.2 0.00 0.00 0.00 29 1007.4
20260504014540 21 238 1.6 3.2 0.00 0.00 0.00 27 1007.4
20260504014023 22 238 0.0 3.2 0.00 0.00 0.00 25 1007.5
20260504013528 22 238 0.0 3.2 0.00 0.00 0.00 23 1007.5
20260504013044 23 238 0.0 3.2 0.00 0.00 0.00 23 1007.4
20260504012522 23 276 0.0 3.2 0.00 0.00 0.00 24 1007.5
20260504012022 23 0 0.0 6.4 0.00 0.00 0.00 23 1007.6
20260504011543 22 273 1.6 6.4 0.00 0.00 0.00 23 1007.7
20260504011030 22 265 0.0 6.4 0.00 0.00 0.00 26 1007.8
20260504010523 22 277 1.6 6.4 0.00 0.00 0.00 25 1007.7
20260504010053 23 259 1.6 6.4 0.00 0.00 0.00 24 1007.7
20260504005523 23 0 3.2 9.7 0.00 0.00 0.00 23 1007.8
20260504005023 22 250 3.2 9.7 0.00 0.00 0.00 25 1007.9
20260504004544 22 255 4.8 9.7 0.00 0.00 0.00 23 1007.9
20260504004026 22 247 3.2 9.7 0.00 0.00 0.00 23 1008.0
20260504003522 22 228 4.8 9.7 0.00 0.00 0.00 22 1008.0
20260504003038 23 234 3.2 6.4 0.00 0.00 0.00 23 1008.0
20260504002522 23 240 1.6 9.7 0.00 0.00 0.00 23 1008.1